This is the latest recevied weather packets stored in our database for station/object WW5JC. If no packets are shown the sender has not sent any weather packets the latest 10 day(s).
| Time | Temp. | Humidity | Pressure | Rain* | Wind** | Luminosity | Snow |
|---|---|---|---|---|---|---|---|
| 1778010064 | 26.67° C | 78% | 1006.7 hPa | 0 mm | - | 242 W/m² | - |
| 1778009761 | 26.67° C | 77% | 1006.6 hPa | 0 mm | - | 296 W/m² | - |
| 1778009458 | 26.67° C | 79% | 1006.7 hPa | 0 mm | - | 348 W/m² | - |
| 1778009158 | 26.67° C | 78% | 1006.5 hPa | 0 mm | - | 365 W/m² | - |
| 1778008854 | 26.67° C | 78% | 1006.7 hPa | 0 mm | - | 277 W/m² | - |
| 1778008553 | 27.22° C | 77% | 1006.6 hPa | 0 mm | - | 259 W/m² | - |
| 1778008250 | 27.22° C | 76% | 1006.7 hPa | 0 mm | - | 411 W/m² | - |
| 1778007950 | 27.22° C | 77% | 1006.5 hPa | 0 mm | - | 383 W/m² | - |
| 1778007646 | 27.22° C | 75% | 1006.5 hPa | 0 mm | - | 667 W/m² | - |
| 1778007343 | 26.67° C | 77% | 1006.8 hPa | 0 mm | - | 828 W/m² | - |
| 1778007039 | 26.67° C | 78% | 1006.7 hPa | 0 mm | - | 475 W/m² | - |
| 1778006736 | 26.67° C | 78% | 1006.8 hPa | 0 mm | - | 784 W/m² | - |
| 1778006433 | 26.11° C | 79% | 1006.6 hPa | 0 mm | - | 538 W/m² | - |
| 1778006130 | 26.11° C | 78% | 1006.9 hPa | 0 mm | - | 272 W/m² | - |
| 1778005827 | 26.11° C | 78% | 1006.9 hPa | 0 mm | - | 337 W/m² | - |
| 1778005523 | 26.67° C | 78% | 1007 hPa | 0 mm | - | 314 W/m² | - |
| 1778005220 | 26.67° C | 77% | 1007.1 hPa | 0 mm | - | 474 W/m² | - |
| 1778004911 | 26.11° C | 78% | 1006.6 hPa | 0 mm | - | 726 W/m² | - |
| 1778004608 | 26.11° C | 78% | 1006.7 hPa | 0 mm | - | 686 W/m² | - |
| 1778004304 | 25.56° C | 80% | 1006.8 hPa | 0 mm | - | 801 W/m² | - |
| 1778004001 | 25.56° C | 79% | 1006.9 hPa | 0 mm | - | 429 W/m² | - |
| 1778003697 | 25.56° C | 81% | 1007.2 hPa | 0 mm | - | 277 W/m² | - |
| 1778003394 | 25.56° C | 80% | 1007 hPa | 0 mm | - | 552 W/m² | - |
| 1778003091 | 25.56° C | 80% | 1006.9 hPa | 0 mm | - | 594 W/m² | - |
| 1778002787 | 25° C | 81% | 1006.5 hPa | 0 mm | - | 380 W/m² | - |
* Rain latest hour (hover to see other rain measurements)
** Current wind speed in m/s (hover to see current wind gust speed)